星链-35509(STARLINK-35509)

导读

STARLINK-35509是美国SpaceX星链星座的卫星,于2025年10月26日发射入轨,属于星链低轨互联网星座组网卫星。星链项目旨在为全球提供高速低延迟宽带互联网服务,该卫星延续了星链星座标准设计,服役后将补全网覆盖能力,支撑星座的通信服务运行。

Basic Information
目录编号:
66199
目录名称:
STARLINK-35509
国际标识:
2025-243Y
轨道中心:
EARTH
卫星名称:
星链-35509
卫星全名:
星链-35509(STARLINK-35509)
卫星状态:
在轨 (已飞行313 天)
发射日期:
2025-10-26 UTC
国别 :
美国 (US)
星等 :
--
Orbit Information
数据来源 国际轨道数据 AOE轨道数据
星历时间 2026-09-03T16:00:02+0800
22小时前
查看轨道信息
2026-09-03T23:00:00+0800
15小时前
查看轨道信息
半长轴 6843.32km 6843.37km
偏心率 0.0001044 0.0001028
轨道倾角 53.158° 53.159°
近地点辐角 79.267° 83.194°
升交点赤经 139.876° 138.515°
平近点角 335.049° 142.105°
近地点 464.468km 464.529km
远地点 465.898km 465.937km
周期 93.899分钟 93.900分钟
每日圈数 15.335661 15.335495
Detailed Information
固有亮度:
5
最大亮度:
2.5
卫星平台:
Starlink V1.0
覆盖范围:
全球
运营商:
太空探索技术公司
运营商所在国:
美国
制造商(研发单位):
太空探索技术公司
制造商所在国:
美国
使用方式:
暂无
Satellite Introduction
Starlink 计划是 SpaceX 推出的全球卫星互联网项目,通过发射低轨道卫星,为全球尤其是偏远地区提供高速、低延迟的互联网服务。自 2019 年起,Starlink 已部署数千颗卫星,旨在缩小全球数字鸿沟,推动互联网普及。该项目还为军事、航空等行业提供通信支持,带来广泛经济效益。
2D Orbit Map
3D Orbit Map
Orbit Altitude Analysis Chart
Orbit Inclination Analysis Chart
Orbit Comprehensive Analysis Chart
View Comprehensive Chart
Conjunction Data List
Event ID Objects TCA Miss Dist (km) Collision Risk Probability Collision Risk Index (CRI) Action
CDM_260904-015105-211006-619921
2026-09-04T
01:51:18+0000
1.075 km
极远距离
1.798403E-5 中风险 0.6
CDM_260902-093506-619906-877421
2026-09-02T
09:35:22+0000
1.882 km
极远距离
3.224567E-6 低风险 0.45
CDM_260904-133505-211006-619921
2026-09-04T
13:35:08+0000
1.883 km
极远距离
2.904176E-6 低风险 0.44
CDM_260905-115205-888106-619921
2026-09-05T
11:52:16+0000
1.811 km
极远距离
2.396541E-6 低风险 0.43
CDM_260905-093105-888106-619921
2026-09-05T
09:31:33+0000
1.860 km
极远距离
2.228117E-6 低风险 0.42
CDM_260901-014406-050406-619922
YAM-7 (60504)
2026-09-01T
01:44:47+0000
2.351 km
极远距离
1.97042E-6 低风险 0.41
CDM_260905-152106-584806-619921
2026-09-05T
15:21:16+0000
2.269 km
极远距离
1.874021E-6 低风险 0.4
CDM_260830-202906-619906-884121
2026-08-30T
20:29:32+0000
2.314 km
极远距离
1.785147E-6 低风险 0.4
CDM_260901-201106-619906-797321
2026-09-01T
20:11:55+0000
2.391 km
极远距离
1.711123E-6 低风险 0.4
CDM_260903-163806-592406-619921
2026-09-03T
16:38:14+0000
2.315 km
极远距离
1.411348E-6 低风险 0.38